Location: Narrabri
(30.3170°S, 149.7830°E)
Time: 03:51:38
(UTC+11:00)

Tiangong 2 - Pass Details

Date: 14 October 2017
Orbit: 387 x 389 km, 42.8° (Epoch: 18 December)

Event Time Altitude Azimuth Distance (km) Brightness Sun altitude
Rises 20:51:05 0° 233° (SW) 2,293 6.4 -21.6°
Reaches altitude 10° 20:53:12 10° 228° (SW) 1,432 5.0 -22.0°
Enters shadow 20:55:31 38° 201° (SSW) 614 2.4 -22.5°
